Year,Month,Day,Hour,Minute,Value (Times are PST for windspeed in km/hr)
2022,02,23,00,00,5.80
2022,02,23,00,01,6.80
2022,02,23,00,02,8.20
2022,02,23,00,03,15.90
2022,02,23,00,04,6.60
2022,02,23,00,05,5.60
2022,02,23,00,06,5.80
2022,02,23,00,07,8.20
2022,02,23,00,08,7.10
2022,02,23,00,09,5.50
2022,02,23,00,10,0.90
2022,02,23,00,11,7.50
2022,02,23,00,12,9.70
2022,02,23,00,13,10.50
2022,02,23,00,14,5.50
2022,02,23,00,15,3.20
2022,02,23,00,16,0.00
2022,02,23,00,17,3.20
2022,02,23,00,18,8.90
2022,02,23,00,19,3.50
2022,02,23,00,20,7.00
2022,02,23,00,21,7.60
2022,02,23,00,22,10.90
2022,02,23,00,23,6.50
2022,02,23,00,24,5.60
2022,02,23,00,25,9.10
2022,02,23,00,26,11.80
2022,02,23,00,27,6.40
2022,02,23,00,28,5.10
2022,02,23,00,29,8.00
2022,02,23,00,30,9.20
2022,02,23,00,31,14.40
2022,02,23,00,32,9.20
2022,02,23,00,33,7.30
2022,02,23,00,34,6.20
2022,02,23,00,35,4.90
2022,02,23,00,36,3.10
2022,02,23,00,37,6.40
2022,02,23,00,38,5.70
2022,02,23,00,39,6.10
2022,02,23,00,40,12.80
2022,02,23,00,41,7.50
2022,02,23,00,42,3.10
2022,02,23,00,43,3.90
2022,02,23,00,44,3.30
2022,02,23,00,45,0.70
2022,02,23,00,46,4.40
2022,02,23,00,47,4.80
2022,02,23,00,48,6.90
2022,02,23,00,49,6.00
2022,02,23,00,50,8.10
2022,02,23,00,51,13.80
2022,02,23,00,52,11.40
2022,02,23,00,53,10.80
2022,02,23,00,54,5.80
2022,02,23,00,55,3.40
2022,02,23,00,56,14.30
2022,02,23,00,57,17.90
2022,02,23,00,58,10.50
2022,02,23,00,59,7.40
2022,02,23,01,00,11.00
2022,02,23,01,01,6.50
2022,02,23,01,02,2.80
2022,02,23,01,03,2.60
2022,02,23,01,04,9.20
2022,02,23,01,05,7.20
2022,02,23,01,06,4.40
2022,02,23,01,07,1.50
2022,02,23,01,08,3.40
2022,02,23,01,09,1.00
2022,02,23,01,10,1.50
2022,02,23,01,11,1.90
2022,02,23,01,12,0.00
2022,02,23,01,13,9.30
2022,02,23,01,14,8.10
2022,02,23,01,15,0.60
2022,02,23,01,16,2.70
2022,02,23,01,17,6.60
2022,02,23,01,18,9.70
2022,02,23,01,19,9.40
2022,02,23,01,20,8.70
2022,02,23,01,21,9.60
2022,02,23,01,22,3.90
2022,02,23,01,23,5.00
2022,02,23,01,24,6.30
2022,02,23,01,25,7.60
2022,02,23,01,26,7.70
2022,02,23,01,27,6.20
2022,02,23,01,28,4.70
2022,02,23,01,29,5.80
2022,02,23,01,30,5.40
2022,02,23,01,31,8.10
2022,02,23,01,32,12.70
2022,02,23,01,33,2.70
2022,02,23,01,34,4.20
2022,02,23,01,35,7.50
2022,02,23,01,36,5.30
2022,02,23,01,37,13.00
2022,02,23,01,38,4.50
2022,02,23,01,39,4.50
2022,02,23,01,40,1.40
2022,02,23,01,41,3.50
2022,02,23,01,42,8.50
2022,02,23,01,43,13.00
2022,02,23,01,44,9.70
2022,02,23,01,45,6.10
2022,02,23,01,46,7.00
2022,02,23,01,47,1.70
2022,02,23,01,48,10.40
2022,02,23,01,49,3.70
2022,02,23,01,50,4.20
2022,02,23,01,51,2.40
2022,02,23,01,52,2.10
2022,02,23,01,53,3.20
2022,02,23,01,54,5.50
2022,02,23,01,55,7.60
2022,02,23,01,56,6.50
2022,02,23,01,57,4.40
2022,02,23,01,58,2.10
2022,02,23,01,59,2.40
2022,02,23,02,00,7.70
2022,02,23,02,01,3.50
2022,02,23,02,02,6.80
2022,02,23,02,03,6.20
2022,02,23,02,04,0.60
2022,02,23,02,05,7.40
2022,02,23,02,06,13.40
2022,02,23,02,07,8.80
2022,02,23,02,08,7.70
2022,02,23,02,09,7.40
2022,02,23,02,10,7.00
2022,02,23,02,11,1.00
2022,02,23,02,12,2.00
2022,02,23,02,13,0.00
2022,02,23,02,14,7.10
2022,02,23,02,15,11.30
2022,02,23,02,16,7.70
2022,02,23,02,17,2.90
2022,02,23,02,18,3.70
2022,02,23,02,19,8.10
2022,02,23,02,20,5.90
2022,02,23,02,21,2.10
2022,02,23,02,22,7.40
2022,02,23,02,23,4.90
2022,02,23,02,24,1.60
2022,02,23,02,25,4.60
2022,02,23,02,26,4.70
2022,02,23,02,27,2.30
2022,02,23,02,28,2.20
2022,02,23,02,29,5.10
2022,02,23,02,30,6.90
2022,02,23,02,31,3.10
2022,02,23,02,32,7.70
2022,02,23,02,33,8.40
2022,02,23,02,34,5.20
2022,02,23,02,35,5.20
2022,02,23,02,36,4.90
2022,02,23,02,37,6.70
2022,02,23,02,38,5.30
2022,02,23,02,39,2.00
2022,02,23,02,40,5.60
2022,02,23,02,41,3.20
2022,02,23,02,42,4.70
2022,02,23,02,43,2.10
2022,02,23,02,44,5.20
2022,02,23,02,45,6.40
2022,02,23,02,46,4.30
2022,02,23,02,47,1.80
2022,02,23,02,48,2.70
2022,02,23,02,49,1.50
2022,02,23,02,50,3.40
2022,02,23,02,51,0.00
2022,02,23,02,52,2.40
2022,02,23,02,53,0.20
2022,02,23,02,54,10.10
2022,02,23,02,55,4.70
2022,02,23,02,56,5.80
2022,02,23,02,57,6.90
2022,02,23,02,58,4.70
2022,02,23,02,59,4.30
2022,02,23,03,00,10.10
2022,02,23,03,01,7.30
2022,02,23,03,02,8.00
2022,02,23,03,03,3.50
2022,02,23,03,04,6.40
2022,02,23,03,05,6.00
2022,02,23,03,06,7.40
2022,02,23,03,07,1.50
2022,02,23,03,08,3.90
2022,02,23,03,09,5.70
2022,02,23,03,10,0.10
2022,02,23,03,11,0.00
2022,02,23,03,12,2.50
2022,02,23,03,13,0.80
2022,02,23,03,14,4.70
2022,02,23,03,15,6.50
2022,02,23,03,16,7.00
2022,02,23,03,17,7.80
2022,02,23,03,18,3.00
2022,02,23,03,19,4.60
2022,02,23,03,20,5.10
2022,02,23,03,21,4.60
2022,02,23,03,22,3.90
2022,02,23,03,23,3.60
2022,02,23,03,24,9.60
2022,02,23,03,25,5.80
2022,02,23,03,26,3.50
2022,02,23,03,27,8.10
2022,02,23,03,28,4.70
2022,02,23,03,29,0.10
2022,02,23,03,30,0.00
2022,02,23,03,31,6.60
2022,02,23,03,32,1.40
2022,02,23,03,33,2.80
2022,02,23,03,34,11.90
2022,02,23,03,35,6.40
2022,02,23,03,36,1.00
2022,02,23,03,37,5.30
2022,02,23,03,38,2.90
2022,02,23,03,39,4.50
2022,02,23,03,40,7.30
2022,02,23,03,41,3.70
2022,02,23,03,42,2.70
2022,02,23,03,43,2.70
2022,02,23,03,44,1.20
2022,02,23,03,45,0.00
2022,02,23,03,46,2.10
2022,02,23,03,47,4.70
2022,02,23,03,48,6.40
2022,02,23,03,49,8.40
2022,02,23,03,50,8.00
2022,02,23,03,51,7.90
2022,02,23,03,52,6.80
2022,02,23,03,53,1.20
2022,02,23,03,54,1.20
2022,02,23,03,55,4.00
2022,02,23,03,56,4.80
2022,02,23,03,57,3.90
2022,02,23,03,58,1.00
2022,02,23,03,59,6.70
2022,02,23,04,00,5.60
2022,02,23,04,01,1.90
2022,02,23,04,02,6.40
2022,02,23,04,03,8.40
2022,02,23,04,04,1.00
2022,02,23,04,05,3.10
2022,02,23,04,06,5.00
2022,02,23,04,07,2.50
2022,02,23,04,08,1.40
2022,02,23,04,09,7.20
2022,02,23,04,10,3.60
2022,02,23,04,11,2.00
2022,02,23,04,12,9.30
2022,02,23,04,13,9.20
2022,02,23,04,14,10.70
2022,02,23,04,15,5.60
2022,02,23,04,16,8.70
2022,02,23,04,17,7.50
2022,02,23,04,18,7.70
2022,02,23,04,19,8.20
2022,02,23,04,20,8.80
2022,02,23,04,21,4.50
2022,02,23,04,22,0.80
2022,02,23,04,23,9.90
2022,02,23,04,24,4.40
2022,02,23,04,25,4.30
2022,02,23,04,26,5.90
2022,02,23,04,27,4.70
2022,02,23,04,28,2.00
2022,02,23,04,29,6.20
2022,02,23,04,30,1.90
2022,02,23,04,31,5.00
2022,02,23,04,32,4.70
2022,02,23,04,33,7.80
2022,02,23,04,34,6.30
2022,02,23,04,35,8.30
2022,02,23,04,36,9.00
2022,02,23,04,37,8.20
2022,02,23,04,38,8.80
2022,02,23,04,39,9.10
2022,02,23,04,40,11.80
2022,02,23,04,41,7.70
2022,02,23,04,42,8.00
2022,02,23,04,43,9.10
2022,02,23,04,44,4.10
2022,02,23,04,45,3.10
2022,02,23,04,46,1.40
2022,02,23,04,47,2.20
2022,02,23,04,48,2.40
2022,02,23,04,49,0.50
2022,02,23,04,50,3.20
2022,02,23,04,51,6.70
2022,02,23,04,52,7.10
2022,02,23,04,53,9.70
2022,02,23,04,54,8.30
2022,02,23,04,55,6.80
2022,02,23,04,56,5.20
2022,02,23,04,57,6.60
2022,02,23,04,58,5.60
2022,02,23,04,59,1.80
2022,02,23,05,00,5.20
2022,02,23,05,01,5.40
2022,02,23,05,02,6.30
2022,02,23,05,03,5.80
2022,02,23,05,04,0.00
2022,02,23,05,05,9.90
2022,02,23,05,06,8.60
2022,02,23,05,07,3.90
2022,02,23,05,08,10.40
2022,02,23,05,09,5.80
2022,02,23,05,10,3.40
2022,02,23,05,11,5.80
2022,02,23,05,12,5.30
2022,02,23,05,13,9.70
2022,02,23,05,14,8.10
2022,02,23,05,15,6.40
2022,02,23,05,16,4.30
2022,02,23,05,17,8.50
2022,02,23,05,18,4.30
2022,02,23,05,19,5.30
2022,02,23,05,20,2.30
2022,02,23,05,21,7.20
2022,02,23,05,22,5.50
2022,02,23,05,23,4.70
2022,02,23,05,24,5.30
2022,02,23,05,25,7.20
2022,02,23,05,26,5.40
2022,02,23,05,27,5.50
2022,02,23,05,28,4.30
2022,02,23,05,29,6.60
2022,02,23,05,30,5.10
2022,02,23,05,31,4.40
2022,02,23,05,32,1.10
2022,02,23,05,33,0.30
2022,02,23,05,34,1.70
2022,02,23,05,35,3.20
2022,02,23,05,36,6.00
2022,02,23,05,37,3.00
2022,02,23,05,38,5.60
2022,02,23,05,39,7.70
2022,02,23,05,40,3.80
2022,02,23,05,41,4.10
2022,02,23,05,42,7.20
2022,02,23,05,43,6.40
2022,02,23,05,44,5.20
2022,02,23,05,45,3.80
2022,02,23,05,46,5.80
2022,02,23,05,47,8.30
2022,02,23,05,48,2.00
2022,02,23,05,49,0.00
2022,02,23,05,50,1.50
2022,02,23,05,51,3.00
2022,02,23,05,52,1.30
2022,02,23,05,53,4.80
2022,02,23,05,54,2.70
2022,02,23,05,55,3.30
2022,02,23,05,56,5.80
2022,02,23,05,57,10.10
2022,02,23,05,58,16.10
2022,02,23,05,59,7.60
2022,02,23,06,00,3.10
2022,02,23,06,01,4.20
2022,02,23,06,02,2.70
2022,02,23,06,03,7.10
2022,02,23,06,04,6.70
2022,02,23,06,05,8.20
2022,02,23,06,06,4.00
2022,02,23,06,07,5.80
2022,02,23,06,08,5.30
2022,02,23,06,09,6.40
2022,02,23,06,10,10.60
2022,02,23,06,11,6.20
2022,02,23,06,12,3.70
2022,02,23,06,13,8.70
2022,02,23,06,14,3.20
2022,02,23,06,15,3.60
2022,02,23,06,16,7.00
2022,02,23,06,17,5.20
2022,02,23,06,18,3.60
2022,02,23,06,19,10.50
2022,02,23,06,20,8.40
2022,02,23,06,21,11.10
2022,02,23,06,22,3.60
2022,02,23,06,23,5.20
2022,02,23,06,24,8.70
2022,02,23,06,25,8.20
2022,02,23,06,26,2.60
2022,02,23,06,27,3.50
2022,02,23,06,28,3.30
2022,02,23,06,29,1.50
2022,02,23,06,30,5.60
2022,02,23,06,31,7.90
2022,02,23,06,32,2.10
2022,02,23,06,33,2.80
2022,02,23,06,34,8.70
2022,02,23,06,35,8.10
2022,02,23,06,36,5.50
2022,02,23,06,37,2.30
2022,02,23,06,38,3.70
2022,02,23,06,39,6.40
2022,02,23,06,40,6.40
2022,02,23,06,41,6.40
2022,02,23,06,42,6.40
2022,02,23,06,43,6.40
2022,02,23,06,44,6.40
2022,02,23,06,45,6.40
2022,02,23,06,46,6.40
2022,02,23,06,47,6.40
2022,02,23,06,48,6.40
2022,02,23,07,56,2.10
2022,02,23,07,57,3.10
2022,02,23,07,58,2.50
2022,02,23,07,59,2.30
2022,02,23,08,00,2.70
2022,02,23,08,01,3.70
2022,02,23,08,02,3.70
2022,02,23,08,03,0.30
2022,02,23,08,04,0.00
2022,02,23,08,05,0.00
2022,02,23,08,06,0.00
2022,02,23,08,07,0.00
2022,02,23,08,08,0.00
2022,02,23,08,09,0.00
2022,02,23,08,10,0.00
2022,02,23,08,11,0.00
2022,02,23,08,12,1.20
2022,02,23,08,13,2.80
2022,02,23,08,14,0.90
2022,02,23,08,15,0.40
2022,02,23,08,16,3.50
2022,02,23,08,17,2.60
2022,02,23,08,18,0.90
2022,02,23,08,19,0.00
2022,02,23,08,20,3.90
2022,02,23,08,21,2.50
2022,02,23,08,22,2.40
2022,02,23,08,23,1.40
2022,02,23,08,24,0.00
2022,02,23,08,25,0.00
2022,02,23,08,26,0.00
2022,02,23,08,27,0.00
2022,02,23,08,28,0.00
2022,02,23,08,29,0.00
2022,02,23,08,30,0.00
2022,02,23,08,31,0.00
2022,02,23,08,32,0.00
2022,02,23,08,33,0.00
2022,02,23,08,34,0.00
2022,02,23,08,35,1.40
2022,02,23,08,36,0.60
2022,02,23,08,37,1.20
2022,02,23,08,38,1.90
2022,02,23,08,39,0.40
2022,02,23,08,40,0.90
2022,02,23,08,41,0.80
2022,02,23,08,42,0.00
2022,02,23,08,43,0.20
2022,02,23,08,44,0.20
2022,02,23,08,45,1.90
2022,02,23,08,46,0.00
2022,02,23,08,47,0.00
2022,02,23,08,48,0.00
2022,02,23,08,49,0.30
2022,02,23,08,50,1.40
2022,02,23,08,51,0.20
2022,02,23,08,52,0.10
2022,02,23,08,53,2.20
2022,02,23,08,54,1.00
2022,02,23,08,55,1.40
2022,02,23,08,56,0.00
2022,02,23,08,57,0.00
2022,02,23,08,58,0.50
2022,02,23,08,59,2.40
2022,02,23,09,00,0.00
2022,02,23,09,01,0.00
2022,02,23,09,02,0.00
2022,02,23,09,03,0.20
2022,02,23,09,04,0.00
2022,02,23,09,05,2.20
2022,02,23,09,06,3.10
2022,02,23,09,07,4.20
2022,02,23,09,08,3.10
2022,02,23,09,09,1.00
2022,02,23,09,10,2.80
2022,02,23,09,11,4.80
2022,02,23,09,12,4.70
2022,02,23,09,13,2.50
2022,02,23,09,14,2.30
2022,02,23,09,15,4.30
2022,02,23,09,16,4.30
2022,02,23,09,17,3.10
2022,02,23,09,18,0.80
2022,02,23,09,19,3.20
2022,02,23,09,20,0.80
2022,02,23,09,21,0.30
2022,02,23,09,22,1.50
2022,02,23,09,23,2.40
2022,02,23,09,24,2.90
2022,02,23,09,25,1.50
2022,02,23,09,26,0.20
2022,02,23,09,27,0.00
2022,02,23,09,28,0.00
2022,02,23,09,29,0.00
2022,02,23,09,30,0.00
2022,02,23,09,31,0.00
2022,02,23,09,32,0.00
2022,02,23,09,33,0.90
2022,02,23,09,34,1.50
2022,02,23,09,35,0.10
2022,02,23,09,36,0.00
2022,02,23,09,37,0.40
2022,02,23,09,38,0.90
2022,02,23,09,39,2.60
2022,02,23,09,40,0.20
2022,02,23,09,41,0.00
2022,02,23,09,42,0.00
2022,02,23,09,43,0.00
2022,02,23,09,44,0.10
2022,02,23,09,45,0.00
2022,02,23,09,46,0.00
2022,02,23,09,47,0.00
2022,02,23,09,48,0.00
2022,02,23,09,49,0.00
2022,02,23,09,50,0.30
2022,02,23,09,51,0.10
2022,02,23,09,52,0.50
2022,02,23,09,53,0.30
2022,02,23,09,54,0.20
2022,02,23,09,55,0.00
2022,02,23,09,56,0.00
2022,02,23,09,57,0.60
2022,02,23,09,58,0.60
2022,02,23,09,59,0.00
2022,02,23,10,00,0.10
2022,02,23,10,01,0.00
2022,02,23,10,02,0.00
2022,02,23,10,03,0.00
2022,02,23,10,04,0.00
2022,02,23,10,05,0.00
2022,02,23,10,06,0.00
2022,02,23,10,07,0.00
2022,02,23,10,08,0.00
2022,02,23,10,09,0.00
2022,02,23,10,10,0.60
2022,02,23,10,11,0.50
2022,02,23,10,12,0.00
2022,02,23,10,13,0.00
2022,02,23,10,14,0.00
2022,02,23,10,15,0.70
2022,02,23,10,16,0.00
2022,02,23,10,17,0.10
2022,02,23,10,18,0.00
2022,02,23,10,19,0.00
2022,02,23,10,20,0.00
2022,02,23,10,21,0.20
2022,02,23,10,22,0.40
2022,02,23,10,23,0.10
2022,02,23,10,24,1.60
2022,02,23,10,25,2.70
2022,02,23,10,26,3.30
2022,02,23,10,27,1.30
2022,02,23,10,28,1.10
2022,02,23,10,29,3.30
2022,02,23,10,30,0.30
2022,02,23,10,31,0.30
2022,02,23,10,32,2.40
2022,02,23,10,33,0.10
2022,02,23,10,34,1.50
2022,02,23,10,35,0.50
2022,02,23,10,36,2.10
2022,02,23,10,37,1.50
2022,02,23,10,38,0.50
2022,02,23,10,39,2.80
2022,02,23,10,40,1.60
2022,02,23,10,41,0.10
2022,02,23,10,42,0.40
2022,02,23,10,43,1.80
2022,02,23,10,44,2.30
2022,02,23,10,45,0.00
2022,02,23,10,46,0.70
2022,02,23,10,47,2.90
2022,02,23,10,48,0.60
2022,02,23,10,49,2.00
2022,02,23,10,50,1.50
2022,02,23,10,51,1.50
2022,02,23,10,52,0.10
2022,02,23,10,53,0.00
2022,02,23,10,54,0.00
2022,02,23,10,55,1.80
2022,02,23,10,56,2.60
2022,02,23,10,57,0.10
2022,02,23,10,58,0.00
2022,02,23,10,59,0.30
2022,02,23,11,00,2.20
2022,02,23,11,01,1.80
2022,02,23,11,02,0.00
2022,02,23,11,03,1.90
2022,02,23,11,04,4.90
2022,02,23,11,05,3.80
2022,02,23,11,06,0.00
2022,02,23,11,07,0.00
2022,02,23,11,08,0.50
2022,02,23,11,09,2.40
2022,02,23,11,10,1.90
2022,02,23,11,11,3.00
2022,02,23,11,12,4.40
2022,02,23,11,13,4.20
2022,02,23,11,14,3.80
2022,02,23,11,15,0.90
2022,02,23,11,16,3.40
2022,02,23,11,17,1.10
2022,02,23,11,18,0.80
2022,02,23,11,19,0.50
2022,02,23,11,20,0.90
2022,02,23,11,21,3.10
2022,02,23,11,22,0.60
2022,02,23,11,23,0.60
2022,02,23,11,24,0.40
2022,02,23,11,25,3.60
2022,02,23,11,26,1.20
2022,02,23,11,27,1.70
2022,02,23,11,28,1.50
2022,02,23,11,29,0.10
2022,02,23,11,30,2.10
2022,02,23,11,31,0.00
2022,02,23,11,32,0.00
2022,02,23,11,33,0.00
2022,02,23,11,34,0.00
2022,02,23,11,35,1.00
2022,02,23,11,36,2.10
2022,02,23,11,37,0.00
2022,02,23,11,38,0.00
2022,02,23,11,39,2.40
2022,02,23,11,40,0.00
2022,02,23,11,41,1.60
2022,02,23,11,42,3.10
2022,02,23,11,43,0.40
2022,02,23,11,44,0.00
2022,02,23,11,45,1.50
2022,02,23,11,46,0.00
2022,02,23,11,47,0.00
2022,02,23,11,48,0.20
2022,02,23,11,49,0.00
2022,02,23,11,50,0.10
2022,02,23,11,51,1.90
2022,02,23,11,52,1.10
2022,02,23,11,53,2.50
2022,02,23,11,54,4.60
2022,02,23,11,55,3.40
2022,02,23,11,56,3.20
2022,02,23,11,57,4.40
2022,02,23,11,58,4.70
2022,02,23,11,59,0.70
2022,02,23,12,00,0.00
2022,02,23,12,01,0.00
2022,02,23,12,02,0.00
2022,02,23,12,03,0.10
2022,02,23,12,04,3.10
2022,02,23,12,05,6.50
2022,02,23,12,06,5.50
2022,02,23,12,07,2.50
2022,02,23,12,08,0.00
2022,02,23,12,09,2.60
2022,02,23,12,10,0.10
2022,02,23,12,11,0.00
2022,02,23,12,12,1.30
2022,02,23,12,13,3.00
2022,02,23,12,14,4.10
2022,02,23,12,15,2.40
2022,02,23,12,16,4.30
2022,02,23,12,17,2.60
2022,02,23,12,18,0.40
2022,02,23,12,19,3.40
2022,02,23,12,20,4.60
2022,02,23,12,21,4.50
2022,02,23,12,22,4.20
2022,02,23,12,23,4.30
2022,02,23,12,24,1.10
2022,02,23,12,25,1.60
2022,02,23,12,26,0.50
2022,02,23,12,27,0.00
2022,02,23,12,28,0.00
2022,02,23,12,29,0.00
2022,02,23,12,30,0.00
2022,02,23,12,31,0.00
2022,02,23,12,32,1.90
2022,02,23,12,33,2.10
2022,02,23,12,34,0.00
2022,02,23,12,35,0.00
2022,02,23,12,36,3.10
2022,02,23,12,37,2.60
2022,02,23,12,38,2.50
2022,02,23,12,39,3.10
2022,02,23,12,40,1.00
2022,02,23,12,41,0.00
2022,02,23,12,42,2.20
2022,02,23,12,43,2.50
2022,02,23,12,44,4.70
2022,02,23,12,45,0.40
2022,02,23,12,46,0.00
2022,02,23,12,47,3.10
2022,02,23,12,48,6.00
2022,02,23,12,49,0.20
2022,02,23,12,50,0.00
2022,02,23,12,51,0.00
2022,02,23,12,52,0.00
2022,02,23,12,53,0.00
2022,02,23,12,54,0.20
2022,02,23,12,55,1.30
2022,02,23,12,56,0.00
2022,02,23,12,57,0.70
2022,02,23,12,58,0.00
2022,02,23,12,59,0.00
2022,02,23,13,00,0.00
2022,02,23,13,01,0.00
2022,02,23,13,02,0.00
2022,02,23,13,03,0.00
2022,02,23,13,04,0.00
2022,02,23,13,05,0.00
2022,02,23,13,06,0.00
2022,02,23,13,07,0.00
2022,02,23,13,08,0.00
2022,02,23,13,09,0.00
2022,02,23,13,10,0.00
2022,02,23,13,11,0.00
2022,02,23,13,12,2.70
2022,02,23,13,13,0.60
2022,02,23,13,14,0.10
2022,02,23,13,15,0.70
2022,02,23,13,16,3.70
2022,02,23,13,17,3.50
2022,02,23,13,18,2.00
2022,02,23,13,19,3.40
2022,02,23,13,20,6.80
2022,02,23,13,21,6.70
2022,02,23,13,22,4.70
2022,02,23,13,23,4.60
2022,02,23,13,24,5.10
2022,02,23,13,25,4.70
2022,02,23,13,26,5.70
2022,02,23,13,27,4.50
2022,02,23,13,28,3.20
2022,02,23,13,29,2.60
2022,02,23,13,30,2.50
2022,02,23,13,31,1.10
2022,02,23,13,32,4.20
2022,02,23,13,33,2.70
2022,02,23,13,34,0.90
2022,02,23,13,35,1.40
2022,02,23,13,36,2.50
2022,02,23,13,37,0.00
2022,02,23,13,38,0.30
2022,02,23,13,39,0.00
2022,02,23,13,40,1.20
2022,02,23,13,41,1.00
2022,02,23,13,42,1.90
2022,02,23,13,43,1.40
2022,02,23,13,44,1.20
2022,02,23,13,45,0.00
2022,02,23,13,46,0.00
2022,02,23,13,47,0.00
2022,02,23,13,48,0.00
2022,02,23,13,49,0.00
2022,02,23,13,50,1.50
2022,02,23,13,51,0.60
2022,02,23,13,52,2.60
2022,02,23,13,53,3.70
2022,02,23,13,54,1.40
2022,02,23,13,55,0.60
2022,02,23,13,56,0.00
2022,02,23,13,57,0.00
2022,02,23,13,58,0.00
2022,02,23,13,59,0.00
2022,02,23,14,00,0.00
2022,02,23,14,01,0.00
2022,02,23,14,02,0.00
2022,02,23,14,03,0.00
2022,02,23,14,04,0.00
2022,02,23,14,05,0.00
2022,02,23,14,06,0.20
2022,02,23,14,07,1.50
2022,02,23,14,08,1.60
2022,02,23,14,09,1.30
2022,02,23,14,10,2.00
2022,02,23,14,11,1.20
2022,02,23,14,12,0.90
2022,02,23,14,13,1.20
2022,02,23,14,14,0.30
2022,02,23,14,15,0.90
2022,02,23,14,16,1.60
2022,02,23,14,17,7.10
2022,02,23,14,18,4.90
2022,02,23,14,19,0.00
2022,02,23,14,20,0.00
2022,02,23,14,21,0.00
2022,02,23,14,22,0.00
2022,02,23,14,23,0.00
2022,02,23,14,24,0.00
2022,02,23,14,25,0.00
2022,02,23,14,26,0.00
2022,02,23,14,27,0.00
2022,02,23,14,28,0.00
2022,02,23,14,29,0.00
2022,02,23,14,30,0.00
2022,02,23,14,31,0.00
2022,02,23,14,32,0.00
2022,02,23,14,33,0.00
2022,02,23,14,34,0.00
2022,02,23,14,35,1.00
2022,02,23,14,36,0.70
2022,02,23,14,37,0.00
2022,02,23,14,38,0.00
2022,02,23,14,39,0.00
2022,02,23,14,40,0.00
2022,02,23,14,41,0.00
2022,02,23,14,42,0.00
2022,02,23,14,43,0.00
2022,02,23,14,44,3.20
2022,02,23,14,45,0.60
2022,02,23,14,46,0.00
2022,02,23,14,47,1.00
2022,02,23,14,48,1.00
2022,02,23,14,49,1.40
2022,02,23,14,50,0.30
2022,02,23,14,51,0.00
2022,02,23,14,52,1.60
2022,02,23,14,53,0.00
2022,02,23,14,54,0.60
2022,02,23,14,55,0.00
2022,02,23,14,56,1.50
2022,02,23,14,57,2.50
2022,02,23,14,58,0.00
2022,02,23,14,59,0.00
2022,02,23,15,00,0.60
2022,02,23,15,01,3.80
2022,02,23,15,02,0.00
2022,02,23,15,03,0.00
2022,02,23,15,04,0.80
2022,02,23,15,05,2.50
2022,02,23,15,06,0.00
2022,02,23,15,07,2.90
2022,02,23,15,08,0.70
2022,02,23,15,09,6.70
2022,02,23,15,10,2.30
2022,02,23,15,11,4.30
2022,02,23,15,12,4.80
2022,02,23,15,13,5.10
2022,02,23,15,14,4.50
2022,02,23,15,15,1.40
2022,02,23,15,16,0.00
2022,02,23,15,17,0.00
2022,02,23,15,18,0.00
2022,02,23,15,19,5.10
2022,02,23,15,20,2.80
2022,02,23,15,21,4.10
2022,02,23,15,22,5.90
2022,02,23,15,23,2.90
2022,02,23,15,24,0.00
2022,02,23,15,25,0.00
2022,02,23,15,26,0.60
2022,02,23,15,27,4.50
2022,02,23,15,28,0.10
2022,02,23,15,29,0.00
2022,02,23,15,30,0.00
2022,02,23,15,31,1.40
2022,02,23,15,32,1.70
2022,02,23,15,33,2.30
2022,02,23,15,34,4.30
2022,02,23,15,35,0.00
2022,02,23,15,36,6.60
2022,02,23,15,37,4.90
2022,02,23,15,38,1.40
2022,02,23,15,39,1.70
2022,02,23,15,40,0.00
2022,02,23,15,41,1.60
2022,02,23,15,42,2.70
2022,02,23,15,43,1.90
2022,02,23,15,44,0.50
2022,02,23,15,45,4.70
2022,02,23,15,46,5.70
2022,02,23,15,47,0.80
2022,02,23,15,48,0.00
2022,02,23,15,49,0.00
2022,02,23,15,50,0.60
2022,02,23,15,51,0.00
2022,02,23,15,52,3.50
2022,02,23,15,53,3.00
2022,02,23,15,54,4.30
2022,02,23,15,55,2.10
2022,02,23,15,56,4.30
2022,02,23,15,57,4.10
2022,02,23,15,58,3.40
2022,02,23,15,59,0.00
2022,02,23,16,00,1.10
2022,02,23,16,01,2.30
2022,02,23,16,02,2.40
2022,02,23,16,03,0.00
2022,02,23,16,04,4.30
2022,02,23,16,05,1.80
2022,02,23,16,06,0.00
2022,02,23,16,07,1.40
2022,02,23,16,08,1.10
2022,02,23,16,09,0.00
2022,02,23,16,10,4.30
2022,02,23,16,11,2.70
2022,02,23,16,12,3.70
2022,02,23,16,13,1.80
2022,02,23,16,14,0.00
2022,02,23,16,15,1.90
2022,02,23,16,16,4.70
2022,02,23,16,17,1.70
2022,02,23,16,18,0.40
2022,02,23,16,19,0.00
2022,02,23,16,20,0.00
2022,02,23,16,21,0.00
2022,02,23,16,22,0.00
2022,02,23,16,23,0.00
2022,02,23,16,24,2.20
2022,02,23,16,25,0.60
2022,02,23,16,26,0.00
2022,02,23,16,27,0.00
2022,02,23,16,28,0.00
2022,02,23,16,29,0.00
2022,02,23,16,30,1.90
2022,02,23,16,31,4.60
2022,02,23,16,32,2.50
2022,02,23,16,33,4.10
2022,02,23,16,34,1.10
2022,02,23,16,35,1.00
2022,02,23,16,36,3.40
2022,02,23,16,37,1.80
2022,02,23,16,38,0.00
2022,02,23,16,39,0.00
2022,02,23,16,40,0.70
2022,02,23,16,41,0.80
2022,02,23,16,42,0.00
2022,02,23,16,43,0.00
2022,02,23,16,44,0.80
2022,02,23,16,45,2.40
2022,02,23,16,46,2.60
2022,02,23,16,47,4.40
2022,02,23,16,48,5.30
2022,02,23,16,49,1.90
2022,02,23,16,50,0.00
2022,02,23,16,51,0.00
2022,02,23,16,52,0.00
2022,02,23,16,53,2.80
2022,02,23,16,54,0.10
2022,02,23,16,55,0.10
2022,02,23,16,56,2.60
2022,02,23,16,57,0.20
2022,02,23,16,58,2.90
2022,02,23,16,59,3.90
2022,02,23,17,00,0.10
2022,02,23,17,01,1.80
2022,02,23,17,02,1.40
2022,02,23,17,03,0.00
2022,02,23,17,04,0.00
2022,02,23,17,05,0.00
2022,02,23,17,06,0.50
2022,02,23,17,07,3.70
2022,02,23,17,08,0.00
2022,02,23,17,09,0.00
2022,02,23,17,10,0.00
2022,02,23,17,11,0.00
2022,02,23,17,12,0.00
2022,02,23,17,13,0.00
2022,02,23,17,14,2.00
2022,02,23,17,15,2.10
2022,02,23,17,16,1.10
2022,02,23,17,17,0.70
2022,02,23,17,18,0.00
2022,02,23,17,19,0.00
2022,02,23,17,20,0.00
2022,02,23,17,21,0.00
2022,02,23,17,22,0.00
2022,02,23,17,23,0.00
2022,02,23,17,24,0.00
2022,02,23,17,25,0.00
2022,02,23,17,26,0.00
2022,02,23,17,27,0.00
2022,02,23,17,28,0.00
2022,02,23,17,29,0.00
2022,02,23,17,30,0.00
2022,02,23,17,31,0.00
2022,02,23,17,32,0.00
2022,02,23,17,33,0.00
2022,02,23,17,34,0.00
2022,02,23,17,35,0.00
2022,02,23,17,36,0.00
2022,02,23,17,37,0.00
2022,02,23,17,38,0.00
2022,02,23,17,39,0.00
2022,02,23,17,40,0.00
2022,02,23,17,41,0.00
2022,02,23,17,42,0.00
2022,02,23,17,43,0.00
2022,02,23,17,44,0.00
2022,02,23,17,45,0.00
2022,02,23,17,46,0.00
2022,02,23,17,47,0.00
2022,02,23,17,48,0.00
2022,02,23,17,49,0.00
2022,02,23,17,50,0.00
2022,02,23,17,51,0.00
2022,02,23,17,52,0.00
2022,02,23,17,53,0.00
2022,02,23,17,54,0.00
2022,02,23,17,55,0.00
2022,02,23,17,56,0.00
2022,02,23,17,57,0.00
2022,02,23,17,58,0.00
2022,02,23,17,59,0.00
2022,02,23,18,00,0.00
2022,02,23,18,01,0.00
2022,02,23,18,02,0.00
2022,02,23,18,03,0.00
2022,02,23,18,04,0.00
2022,02,23,18,05,0.00
2022,02,23,18,06,0.00
2022,02,23,18,07,0.00
2022,02,23,18,08,0.00
2022,02,23,18,09,0.00
2022,02,23,18,10,0.00
2022,02,23,18,11,0.00
2022,02,23,18,12,0.00
2022,02,23,18,13,0.00
2022,02,23,18,14,0.00
2022,02,23,18,15,0.00
2022,02,23,18,16,0.00
2022,02,23,18,17,0.00
2022,02,23,18,18,0.00
2022,02,23,18,19,0.00
2022,02,23,18,20,0.00
2022,02,23,18,21,0.00
2022,02,23,18,22,0.00
2022,02,23,18,23,0.00
2022,02,23,18,24,0.00
2022,02,23,18,25,0.00
2022,02,23,18,26,0.00
2022,02,23,18,27,0.00
2022,02,23,18,28,0.00
2022,02,23,18,29,0.00
2022,02,23,18,30,0.00
2022,02,23,18,31,0.00
2022,02,23,18,32,0.00
2022,02,23,18,33,0.00
2022,02,23,18,34,0.00
2022,02,23,18,35,0.00
2022,02,23,18,36,0.00
2022,02,23,18,37,0.00
2022,02,23,18,38,0.00
2022,02,23,18,39,0.00
2022,02,23,18,40,0.00
2022,02,23,18,41,0.00
2022,02,23,18,42,0.00
2022,02,23,18,43,0.00
2022,02,23,18,44,0.00
2022,02,23,18,45,0.00
2022,02,23,18,46,0.00
2022,02,23,18,47,0.00
2022,02,23,18,48,0.00
2022,02,23,18,49,0.00
2022,02,23,18,50,0.00
2022,02,23,18,51,0.00
2022,02,23,18,52,0.00
2022,02,23,18,53,0.00
2022,02,23,18,54,0.00
2022,02,23,18,55,0.00
2022,02,23,18,56,0.00
2022,02,23,18,57,0.00
2022,02,23,18,58,0.00
2022,02,23,18,59,0.00
2022,02,23,19,00,0.00
2022,02,23,19,01,0.00
2022,02,23,19,02,0.00
2022,02,23,19,03,0.00
2022,02,23,19,04,0.00
2022,02,23,19,05,0.00
2022,02,23,19,06,0.00
2022,02,23,19,07,0.00
2022,02,23,19,08,0.00
2022,02,23,19,09,0.00
2022,02,23,19,10,0.00
2022,02,23,19,11,0.00
2022,02,23,19,12,0.00